Location: Seattle
(47.6060°N, 122.3310°W)
Time: 19:12:48
(UTC-07:00)

ISS - Visible Passes

Search period start: 28 May 2015 00:00
Search period end: 07 June 2015 00:00
Orbit: 399 x 404 km, 51.6° (Epoch: 28 May)

Date Brightness Start Highest point End Pass type
(mag) Time Alt. Az. Time Alt. Az. Time Alt. Az.
28 May -2.7 01:39:57 41° WNW 01:40:43 54° NNW 01:43:56 10° ENE visible
28 May -1.9 03:14:23 10° WNW 03:17:30 39° N 03:20:36 10° ENE visible
29 May -3.1 00:47:47 65° NE 00:47:47 65° NE 00:50:42 10° ENE visible
29 May -1.9 02:21:02 10° WNW 02:24:07 38° N 02:27:13 10° ENE visible
29 May -2.7 03:57:38 10° WNW 04:00:53 60° NNE 04:04:07 10° E visible
29 May -2.9 23:54:57 47° E 23:54:57 47° E 23:57:26 10° ENE visible
30 May -2.1 01:27:37 10° W 01:30:45 42° N 01:33:52 10° ENE visible
30 May -2.2 03:04:22 10° WNW 03:07:33 46° NNE 03:10:43 10° E visible
30 May -3.0 22:57:53 10° SW 23:00:59 42° SSE 23:04:05 10° ENE visible
31 May -2.5 00:34:11 10° W 00:37:23 51° NNW 00:40:35 10° ENE visible
31 May -1.9 02:11:03 10° WNW 02:14:10 40° N 02:17:16 10° ENE visible
31 May -3.4 03:47:31 10° WNW 03:50:48 86° SSW 03:54:04 10° ESE visible
31 May -2.3 22:05:08 10° SSW 22:07:50 25° SE 22:10:35 10° E visible
31 May -3.1 23:40:48 10° WSW 23:44:02 70° NNW 23:47:18 10° ENE visible
01 Jun -1.8 01:17:40 10° WNW 01:20:46 38° N 01:23:52 10° ENE visible
01 Jun -2.9 02:54:15 10° WNW 02:57:30 65° NNE 03:00:45 10° ESE visible
01 Jun -2.4 04:30:54 10° W 04:33:45 28° SW 04:36:35 10° SSE visible
01 Jun -3.5 22:47:30 10° WSW 22:50:45 79° SSE 22:54:01 10° ENE visible
02 Jun -2.0 00:24:14 10° W 00:27:21 40° N 00:30:28 10° ENE visible
02 Jun -2.4 02:00:58 10° WNW 02:04:08 48° NNE 02:07:20 10° E visible
02 Jun -3.1 03:37:26 10° WNW 03:40:35 46° SSW 03:43:43 10° SE visible
02 Jun -3.1 21:54:23 10° SW 21:57:31 47° SSE 22:00:40 10° ENE visible
02 Jun -2.3 23:30:47 10° W 23:33:57 48° NNW 23:37:08 10° ENE visible
03 Jun -2.0 01:07:37 10° WNW 01:10:44 41° N 01:13:51 10° E visible
03 Jun -3.5 02:44:04 10° WNW 02:47:21 77° SSW 02:50:36 10° ESE visible
03 Jun -1.6 04:21:25 10° W 04:23:20 14° SW 04:25:10 10° S visible
03 Jun -2.9 22:37:21 10° WSW 22:40:35 64° NNW 22:43:49 10° ENE visible
04 Jun -1.8 00:14:14 10° WNW 00:17:18 38° N 00:20:24 10° ENE visible
04 Jun -3.1 01:50:46 10° WNW 01:54:01 71° NNE 01:57:17 10° ESE visible
04 Jun -2.1 03:27:29 10° W 03:29:42 23° SW 03:29:42 23° SW visible
04 Jun -3.4 21:43:59 10° WSW 21:47:14 87° SSE 21:50:30 10° ENE visible
04 Jun -1.9 23:20:46 10° WNW 23:23:52 40° N 23:26:58 10° ENE visible
05 Jun -2.5 00:57:27 10° WNW 01:00:39 51° NNE 01:02:58 17° E visible
05 Jun -1.8 02:33:56 10° WNW 02:35:26 23° W 02:35:26 23° W visible
05 Jun -2.2 22:27:17 10° W 22:30:25 46° NNW 22:33:35 10° ENE visible
06 Jun -2.1 00:04:06 10° WNW 00:07:13 42° N 00:10:21 10° E visible
06 Jun -2.7 01:40:32 10° WNW 01:42:56 44° W 01:42:56 44° W visible
06 Jun -1.9 23:10:40 10° WNW 23:13:45 38° N 23:16:51 10° ENE visible
